STARLINK-4703 (53855 NORAD) Tracking and Keplerian Element Data

This shows tracking and keplerian element data for the satellite.

Feedback or suggestion? Click here.




ElementValue
Catalog53855
NameSTARLINK-4703
Epoch Orbit130
Epoch Day324.91667824
Epoch Year2022
RAAN307.668
Inclination53.2175
Eccentricity0.0001226
Argument of Perigee78.0467
Mean Anonmoly123.3021
Mean Motion15.6759975
Decay Rate-0.01138514
L11 53855U 22114AP 22324.91667824 -.01138514 00000+0 -11310-1 0 9993
L22 53855 53.2175 307.6680 0001226 78.0467 123.3021 15.67599750 1304



Live tracking and technical data element details for STARLINK-4703 (NORAD 53855). STARLINK-4703 can be tracked NOW for your location showing map with azimuth and elevation plus other details from your city location.







IsCatalogInMostPopularTable: catalog: 53855, numindb: -1

Insert: records affected: 1


GetName: 53855 STARLINK-4703

Hit Count: inserted at: Thu, 08 Dec 2022 09:13:56 GMT